Nampa, ID

9:21 PM MST on February 25, 2018 (GMT -0700)
Nampa

Weather History for KMAN - March, 2014

Change the Weather History Date:

Monday, March 3, 2014

  Actual Average (KBOI) Record (KBOI)
Temperature  
Mean Temperature 46 °F -  
Max Temperature 51 °F 47 °F 70 °F (1921)
Min Temperature 42 °F 30 °F 14 °F (1966)
Degree Days  
Heating Degree Days 18    
Moisture  
Dew Point 45 °F    
Average Humidity 95    
Maximum Humidity 100    
Minimum Humidity 76    
Precipitation  
Precipitation 0.22 in - - ()
Sea Level Pressure  
Sea Level Pressure 29.93 in    
Wind  
Wind Speed 6 mph (SE)    
Max Wind Speed 15 mph    
Max Gust Speed 23 mph    
Visibility 9 miles    
Events      
Averages and records for this station are not official NWS values.
T = Trace of Precipitation, MM = Missing Value Source: NWS Daily Summary

Daily Weather History Graph

Daily Weather History Graph

Search for Another Location

Airport or City:

Trip Planner

Search our weather history database for the weather conditions in past years. The results will help you decide how hot, cold, wet, or windy it might be!

Date:

Astronomy

Mar. 03, 2014 Rise Set
Actual Time 7:19 AM MST 6:37 PM MST
Civil Twilight 6:50 AM MST 7:06 PM MST
Nautical Twilight 6:17 AM MST 7:39 PM MST
Astronomical Twilight 5:44 AM MST 8:12 PM MST
Moon 8:24 AM MST (3/3) 9:52 PM MST (3/3)
Length of Visible Light 12h 15m
Length of Day
11h 18m
Waxing Crescent, 8% of the Moon is Illuminated
Mar 3
Waxing Crescent
Mar 8
First Quarter
Mar 16
Full
Mar 23
Last Quarter
Mar 30
New

Hourly Weather History & Observations

Time (MST) Temp. Windchill Dew Point Humidity Pressure Visibility Wind Dir Wind Speed Gust Speed Precip Events Conditions
12:15 AM 46.4 °F 44.3 °F 42.8 °F 87% 29.91 in 10.0 mi ENE 4.6 mph - N/A   Mostly Cloudy
12:35 AM 44.6 °F 42.2 °F 42.8 °F 93% 29.92 in 10.0 mi ESE 4.6 mph - N/A   Mostly Cloudy
12:55 AM 44.6 °F 41.4 °F 44.6 °F 100% 29.92 in 10.0 mi SSW 5.8 mph - N/A   Scattered Clouds
1:15 AM 44.6 °F - 42.8 °F 93% 29.93 in 10.0 mi Calm Calm - N/A   Mostly Cloudy
1:35 AM 44.6 °F 42.2 °F 44.6 °F 100% 29.93 in 10.0 mi East 4.6 mph - N/A   Overcast
1:55 AM 46.4 °F 42.9 °F 42.8 °F 87% 29.94 in 10.0 mi ENE 6.9 mph - N/A   Scattered Clouds
2:15 AM 46.4 °F - 42.8 °F 87% 29.95 in 10.0 mi Calm Calm - N/A   Partly Cloudy
2:35 AM 46.4 °F 44.3 °F 42.8 °F 87% 29.94 in 10.0 mi SSW 4.6 mph - N/A   Partly Cloudy
2:55 AM 48.2 °F - 41.0 °F 76% 29.95 in 10.0 mi SW 6.9 mph - N/A   Mostly Cloudy
3:15 AM 46.4 °F 43.5 °F 41.0 °F 81% 29.94 in 10.0 mi East 5.8 mph - N/A   Mostly Cloudy
3:35 AM 46.4 °F - 42.8 °F 87% 29.95 in 10.0 mi Calm Calm - N/A   Overcast
3:55 AM 44.6 °F 43.1 °F 44.6 °F 100% 29.95 in 10.0 mi ESE 3.5 mph - N/A   Overcast
4:15 AM 46.4 °F 43.5 °F 42.8 °F 87% 29.95 in 10.0 mi ESE 5.8 mph - N/A   Overcast
4:35 AM 44.6 °F 43.1 °F 44.6 °F 100% 29.96 in 10.0 mi SSE 3.5 mph - N/A   Mostly Cloudy
4:55 AM 44.6 °F 42.2 °F 44.6 °F 100% 29.96 in 10.0 mi SSE 4.6 mph - N/A   Partly Cloudy
5:15 AM 46.4 °F 44.3 °F 41.0 °F 81% 29.96 in 10.0 mi SSE 4.6 mph - N/A   Clear
5:35 AM 44.6 °F 41.4 °F 42.8 °F 93% 29.96 in 10.0 mi ESE 5.8 mph - N/A   Partly Cloudy
5:55 AM 46.4 °F 42.4 °F 41.0 °F 81% 29.95 in 10.0 mi ESE 8.1 mph - N/A   Partly Cloudy
6:15 AM 44.6 °F 40.7 °F 42.8 °F 93% 29.95 in 10.0 mi SE 6.9 mph - N/A   Mostly Cloudy
6:35 AM 42.8 °F 38.0 °F 42.8 °F 100% 29.94 in 10.0 mi SE 8.1 mph - N/A   Mostly Cloudy
6:55 AM 44.6 °F 40.2 °F 44.6 °F 100% 29.94 in 10.0 mi SE 8.1 mph - N/A   Mostly Cloudy
7:15 AM 44.6 °F 40.2 °F 44.6 °F 100% 29.94 in 10.0 mi SE 8.1 mph - N/A   Overcast
7:35 AM 44.6 °F 40.2 °F 44.6 °F 100% 29.94 in 10.0 mi SE 8.1 mph - N/A   Overcast
7:55 AM 44.6 °F 40.7 °F 42.8 °F 93% 29.94 in 10.0 mi SE 6.9 mph - N/A   Overcast
8:15 AM 44.6 °F 40.7 °F 42.8 °F 93% 29.95 in 10.0 mi SE 6.9 mph - N/A   Overcast
8:35 AM 44.6 °F 39.7 °F 44.6 °F 100% 29.95 in 8.0 mi SE 9.2 mph - N/A   Mostly Cloudy
8:55 AM 46.4 °F 42.9 °F 44.6 °F 93% 29.96 in 10.0 mi SE 6.9 mph 16.1 mph N/A   Mostly Cloudy
9:15 AM 46.4 °F 44.3 °F 46.4 °F 100% 29.96 in 10.0 mi SE 4.6 mph - N/A   Overcast
9:35 AM 46.4 °F 43.5 °F 44.6 °F 93% 29.96 in 10.0 mi ESE 5.8 mph - 0.01 in   Mostly Cloudy
9:55 AM 46.4 °F 44.3 °F 46.4 °F 100% 29.98 in 3.0 mi SSE 4.6 mph - 0.03 in   Scattered Clouds
10:15 AM 46.4 °F 42.9 °F 46.4 °F 100% 29.98 in 5.0 mi South 6.9 mph - 0.02 in   Scattered Clouds
10:35 AM 48.2 °F - 46.4 °F 93% 29.97 in 8.0 mi South 5.8 mph - 0.02 in   Scattered Clouds
10:55 AM 48.2 °F - 46.4 °F 93% 29.96 in 10.0 mi SE 8.1 mph - 0.02 in   Scattered Clouds
11:15 AM 48.2 °F - 46.4 °F 93% 29.97 in 10.0 mi SSE 4.6 mph - N/A   Mostly Cloudy
11:35 AM 48.2 °F - 46.4 °F 93% 29.98 in 10.0 mi SE 4.6 mph - N/A   Overcast
11:55 AM 48.2 °F - 46.4 °F 93% 29.98 in 8.0 mi ESE 5.8 mph - N/A   Mostly Cloudy
12:15 PM 48.2 °F - 48.2 °F 100% 29.97 in 9.0 mi ESE 8.1 mph - 0.01 in   Scattered Clouds
12:35 PM 48.2 °F - 48.2 °F 100% 29.96 in 5.0 mi ESE 9.2 mph - 0.02 in   Scattered Clouds
12:55 PM 48.2 °F - 48.2 °F 100% 29.96 in 8.0 mi ESE 8.1 mph - 0.02 in   Scattered Clouds
1:15 PM 48.2 °F - 48.2 °F 100% 29.95 in 9.0 mi ESE 8.1 mph - N/A   Partly Cloudy
1:35 PM 50.0 °F - 48.2 °F 94% 29.93 in 9.0 mi ESE 11.5 mph 16.1 mph N/A   Partly Cloudy
1:55 PM 50.0 °F - 48.2 °F 94% 29.92 in 10.0 mi ESE 15.0 mph 18.4 mph N/A   Partly Cloudy
2:15 PM 50.0 °F - 48.2 °F 94% 29.92 in 10.0 mi ESE 13.8 mph 19.6 mph N/A   Mostly Cloudy
2:35 PM 50.0 °F - 48.2 °F 94% 29.91 in 7.0 mi ESE 15.0 mph 20.7 mph 0.01 in   Scattered Clouds
2:55 PM 48.2 °F - 48.2 °F 100% 29.92 in 10.0 mi ESE 12.7 mph 19.6 mph 0.02 in   Scattered Clouds
3:15 PM 48.2 °F - 48.2 °F 100% 29.91 in 10.0 mi ESE 11.5 mph - N/A   Mostly Cloudy
3:35 PM 50.0 °F - 48.2 °F 94% 29.90 in 10.0 mi SE 13.8 mph 20.7 mph N/A   Overcast
3:55 PM 50.0 °F - 48.2 °F 94% 29.89 in 10.0 mi ESE 15.0 mph - N/A   Mostly Cloudy
4:15 PM 50.0 °F - 48.2 °F 94% 29.88 in 10.0 mi ESE 13.8 mph 20.7 mph N/A   Scattered Clouds
4:35 PM 51.8 °F - 48.2 °F 88% 29.88 in 10.0 mi SE 12.7 mph 23.0 mph N/A   Scattered Clouds
4:55 PM 51.8 °F - 46.4 °F 82% 29.88 in 10.0 mi ESE 11.5 mph 21.9 mph N/A   Overcast
5:15 PM 50.0 °F - 48.2 °F 94% 29.90 in 5.0 mi East 9.2 mph - 0.02 in   Mostly Cloudy
5:35 PM 50.0 °F - 48.2 °F 94% 29.89 in 10.0 mi ESE 9.2 mph - 0.02 in   Mostly Cloudy
5:55 PM 50.0 °F - 48.2 °F 94% 29.90 in 4.0 mi ESE 8.1 mph - 0.03 in   Overcast
6:15 PM 48.2 °F - 48.2 °F 100% 29.89 in 9.0 mi ESE 10.4 mph - 0.01 in   Mostly Cloudy
6:35 PM 50.0 °F - 46.4 °F 87% 29.89 in 10.0 mi ESE 11.5 mph - 0.01 in   Mostly Cloudy
6:55 PM 50.0 °F - 46.4 °F 87% 29.88 in 10.0 mi ESE 13.8 mph 17.3 mph 0.01 in   Mostly Cloudy
7:15 PM 50.0 °F - 46.4 °F 87% 29.88 in 10.0 mi SE 9.2 mph 18.4 mph N/A   Overcast
7:35 PM 48.2 °F - 46.4 °F 93% 29.90 in 10.0 mi WSW 6.9 mph - N/A   Overcast
7:55 PM 48.2 °F - 48.2 °F 100% 29.93 in 4.0 mi NW 8.1 mph - 0.06 in   Unknown
8:15 PM 48.2 °F - 48.2 °F 100% 29.93 in 5.0 mi North 3.5 mph - 0.01 in   Unknown
8:35 PM 48.2 °F - 48.2 °F 100% 29.92 in 9.0 mi East 3.5 mph - 0.03 in   Unknown
8:55 PM 46.4 °F 45.2 °F 46.4 °F 100% 29.92 in 10.0 mi SE 3.5 mph - 0.03 in   Mostly Cloudy
9:15 PM 44.6 °F 42.2 °F 44.6 °F 100% 29.92 in 10.0 mi SE 4.6 mph - N/A   Partly Cloudy
9:35 PM 44.6 °F 41.4 °F 44.6 °F 100% 29.92 in 10.0 mi East 5.8 mph - N/A   Scattered Clouds
9:55 PM 44.6 °F - 44.6 °F 100% 29.93 in 10.0 mi Calm Calm - N/A   Partly Cloudy
10:15 PM 44.6 °F 42.2 °F 44.6 °F 100% 29.93 in 10.0 mi SSE 4.6 mph - N/A   Mostly Cloudy
10:35 PM 44.6 °F 42.2 °F 44.6 °F 100% 29.94 in 10.0 mi SE 4.6 mph - N/A   Mostly Cloudy
10:55 PM 44.6 °F 42.2 °F 44.6 °F 100% 29.94 in 10.0 mi ESE 4.6 mph - N/A   Mostly Cloudy
11:15 PM 44.6 °F 42.2 °F 44.6 °F 100% 29.94 in 10.0 mi ESE 4.6 mph - N/A   Mostly Cloudy
11:35 PM 44.6 °F - 44.6 °F 100% 29.94 in 10.0 mi Calm Calm - N/A   Mostly Cloudy
11:55 PM 42.8 °F - 42.8 °F 100% 29.94 in 10.0 mi Calm Calm - N/A   Mostly Cloudy